Погода в Кемцах

Россия / Тверская область     58°04′29″N   34°15′02″E
темп.,
°C
ветер,
м/с
пор.,
м/с
влажн.,
%
обл.,
%
осадки,
мм/ч
давл.,
гПа
погр.,
м
4 марта, чт
чт400:00+1з61397100 0.3 1001909
03:00+1зсз61297100 2.6 1000902
06:00−2сз5128397 1.0 1000861
09:00−3зсз498972 1.0 1001755
12:00−3сз477899 0.0 1001790
15:00−2сз467699 0.1 1001917
18:00−4ссз3685100 0.1 1002488
21:00−6зсз239473 0.1 100382
5 марта, пт
пт500:00−6сз389189 0.1 1004433
03:00−7сз389193 0.1 1005506
06:00−8зсз389496 0.1 1006420
09:00−7сз378896 0.1 1007563
12:00−5сз3575100 0.1 1009886
15:00−4сз4669100 0.3 10101089
18:00−6сз3781100 0.1 1012515
21:00−9с268884 0.2 1015217
6 марта, сб
сб600:00−11ссз22930 0.0 101676
03:00−11сз12920 0.0 101729
06:00−10з249174 0.0 1017237
09:00−9з378987 0.2 1018433
12:00−6зсз4673100 0.1 10161034
15:00−5з4767100 0.1 10141221
18:00−6юз41076100 0.0 1011837
21:00−6юз71489100 0.1 10061082
7 марта, вс
вс700:00−4юз71690100 0.8 10001292
03:00−3юз71591100 1.4 9941225
06:00−3юз71592100 1.1 9911246
09:00−6сз41065100 2.7 9911183
12:00−5зюз38539 0.0 9921512
15:00−6з5106448 1.5 9921422
18:00−7сз7127396 0.3 9921267
21:00−9сз388797 0.6 994616
8 марта, пн
пн800:00−11сз3894100 0.2 996387
03:00−12сз4109077 0.2 1000455
06:00−11сз51089100 0.1 1002808
09:00−11ссз5986100 0.3 1005836
12:00−11ссз5881100 0.1 1009770
15:00−11ссз5980100 0.2 1012770
18:00−12ссз51087100 0.1 1014726
21:00−14ссз41089100 0.1 1017675